SAS4038 ENZV-ENGM

Flight info

Callsign SAS4038
Flight time 0h 34m
Altitude 29000
Route UPLEV DCT OSKOM DCT RIPAM
Aircraft A320/M-SDE3FGHIRWXY/ALB1

Departure

Time 2026-05-05 17:32
Airport Stavanger Airport, Sola (ENZV)

Arrival

Time 2026-05-05 18:06
Airport Oslo-Gardermoen International Airport (ENGM)
Time Latitude Longitude Altitude Speed Heading
2026-05-05 17:02 58.88278 5.63074 28 ft 0 kts 255°
2026-05-05 17:15 58.88280 5.63095 28 ft 2 kts 255°
2026-05-05 17:16 58.88285 5.63127 28 ft 2 kts 255°
2026-05-05 17:16 58.88290 5.63159 28 ft 2 kts 255°
2026-05-05 17:16 58.88296 5.63192 28 ft 3 kts 227°
2026-05-05 17:16 58.88310 5.63212 28 ft 3 kts 190°
2026-05-05 17:17 58.88325 5.63214 28 ft 0 kts 160°
2026-05-05 17:21 58.88308 5.63228 28 ft 7 kts 154°
2026-05-05 17:22 58.88269 5.63408 28 ft 10 kts 123°
2026-05-05 17:22 58.88197 5.63432 29 ft 12 kts 181°
2026-05-05 17:22 58.88104 5.63434 30 ft 14 kts 178°
2026-05-05 17:22 58.88004 5.63417 31 ft 15 kts 198°
2026-05-05 17:23 58.87909 5.63342 30 ft 14 kts 203°
2026-05-05 17:23 58.87805 5.63291 32 ft 17 kts 180°
2026-05-05 17:23 58.87678 5.63294 32 ft 20 kts 179°
2026-05-05 17:23 58.87527 5.63298 33 ft 23 kts 179°
2026-05-05 17:24 58.87358 5.63304 35 ft 25 kts 179°
2026-05-05 17:24 58.87237 5.63305 36 ft 15 kts 179°
2026-05-05 17:24 58.87134 5.63309 37 ft 9 kts 180°
2026-05-05 17:24 58.87115 5.63309 37 ft 4 kts 180°
2026-05-05 17:25 58.87066 5.63316 37 ft 9 kts 169°
2026-05-05 17:25 58.87027 5.63350 38 ft 5 kts 146°
2026-05-05 17:25 58.86999 5.63458 38 ft 9 kts 95°
2026-05-05 17:25 58.87010 5.63549 37 ft 0 kts 66°
2026-05-05 17:26 58.87010 5.63551 37 ft 0 kts 66°
2026-05-05 17:28 58.87011 5.63553 37 ft 2 kts 65°
2026-05-05 17:28 58.87020 5.63591 38 ft 0 kts 65°
2026-05-05 17:30 58.87026 5.63614 38 ft 5 kts 64°
2026-05-05 17:30 58.87052 5.63711 37 ft 11 kts 60°
2026-05-05 17:31 58.87111 5.63796 37 ft 11 kts 11°
2026-05-05 17:31 58.87200 5.63798 37 ft 15 kts 359°
2026-05-05 17:31 58.87433 5.63789 38 ft 65 kts 359°
2026-05-05 17:31 58.88111 5.63769 31 ft 126 kts 359°
2026-05-05 17:32 58.89080 5.63738 396 ft 138 kts 354°
2026-05-05 17:32 58.90060 5.63696 976 ft 143 kts 354°
2026-05-05 17:32 58.91071 5.63653 1499 ft 154 kts 356°
2026-05-05 17:32 58.92214 5.63611 1871 ft 174 kts 357°
2026-05-05 17:33 58.93508 5.63575 2250 ft 198 kts 357°
2026-05-05 17:33 58.94226 5.63552 2495 ft 211 kts 357°
2026-05-05 17:33 58.95262 5.63521 2848 ft 227 kts 357°
2026-05-05 17:33 58.96911 5.63475 3571 ft 243 kts 358°
2026-05-05 17:34 58.98618 5.63431 4567 ft 248 kts 358°
2026-05-05 17:34 59.00358 5.63384 5522 ft 254 kts 358°
2026-05-05 17:34 59.02141 5.63334 5885 ft 257 kts 357°
2026-05-05 17:34 59.03930 5.63308 5989 ft 258 kts
2026-05-05 17:35 59.05656 5.64215 6002 ft 261 kts 27°
2026-05-05 17:35 59.06992 5.66552 6003 ft 267 kts 53°
2026-05-05 17:35 59.07634 5.69974 6260 ft 281 kts 83°
2026-05-05 17:35 59.07703 5.73763 7269 ft 280 kts 82°
2026-05-05 17:36 59.08079 5.77487 8211 ft 282 kts 72°
2026-05-05 17:36 59.08656 5.81159 9105 ft 287 kts 69°
2026-05-05 17:36 59.09299 5.84878 9982 ft 293 kts 68°
2026-05-05 17:36 59.09953 5.88738 10457 ft 312 kts 69°
2026-05-05 17:37 59.10624 5.92910 10727 ft 335 kts 70°
2026-05-05 17:37 59.11082 5.95919 10879 ft 351 kts 71°
2026-05-05 17:37 59.11970 6.02138 11603 ft 366 kts 72°
2026-05-05 17:37 59.12626 6.06965 12297 ft 372 kts 73°
2026-05-05 17:38 59.13282 6.11878 13008 ft 378 kts 73°
2026-05-05 17:38 59.13946 6.16869 13735 ft 384 kts 73°
2026-05-05 17:38 59.14619 6.21934 14326 ft 390 kts 73°
2026-05-05 17:38 59.15309 6.27096 14848 ft 397 kts 72°
2026-05-05 17:39 59.16015 6.32348 15316 ft 404 kts 72°
2026-05-05 17:39 59.16734 6.37690 15823 ft 412 kts 72°
2026-05-05 17:39 59.17465 6.43144 16368 ft 419 kts 72°
2026-05-05 17:39 59.18207 6.48698 16907 ft 427 kts 72°
2026-05-05 17:40 59.18959 6.54350 17443 ft 435 kts 72°
2026-05-05 17:40 59.19723 6.60113 17992 ft 442 kts 72°
2026-05-05 17:40 59.20497 6.65972 18507 ft 449 kts 72°
2026-05-05 17:40 59.21276 6.71921 19041 ft 455 kts 73°
2026-05-05 17:41 59.22055 6.77943 19645 ft 459 kts 73°
2026-05-05 17:41 59.22839 6.84017 20254 ft 463 kts 73°
2026-05-05 17:41 59.23629 6.90136 20823 ft 467 kts 73°
2026-05-05 17:41 59.24426 6.96319 21361 ft 471 kts 73°
2026-05-05 17:42 59.25227 7.02548 21877 ft 475 kts 73°
2026-05-05 17:42 59.26030 7.08827 22371 ft 479 kts 73°
2026-05-05 17:42 59.26839 7.15175 22865 ft 483 kts 73°
2026-05-05 17:42 59.27650 7.21560 23318 ft 486 kts 73°
2026-05-05 17:43 59.28463 7.28021 23728 ft 490 kts 74°
2026-05-05 17:43 59.29279 7.34521 24092 ft 494 kts 74°
2026-05-05 17:43 59.30096 7.41073 24467 ft 497 kts 74°
2026-05-05 17:43 59.30915 7.47667 24829 ft 500 kts 74°
2026-05-05 17:44 59.31740 7.54312 25202 ft 503 kts 74°
2026-05-05 17:44 59.32557 7.60913 25571 ft 507 kts 74°
2026-05-05 17:44 59.33385 7.67641 25936 ft 510 kts 74°
2026-05-05 17:44 59.34210 7.74409 26307 ft 513 kts 74°
2026-05-05 17:45 59.35041 7.81232 26673 ft 516 kts 74°
2026-05-05 17:45 59.35872 7.88092 27021 ft 519 kts 74°
2026-05-05 17:45 59.36702 7.94995 27370 ft 522 kts 75°
2026-05-05 17:45 59.37536 8.01955 27716 ft 525 kts 75°
2026-05-05 17:46 59.38369 8.08945 28060 ft 528 kts 75°
2026-05-05 17:46 59.39201 8.15971 28378 ft 531 kts 75°
2026-05-05 17:46 59.40038 8.23058 28690 ft 534 kts 75°
2026-05-05 17:46 59.40874 8.30181 28915 ft 536 kts 75°
2026-05-05 17:47 59.41701 8.37302 28948 ft 533 kts 75°
2026-05-05 17:47 59.43344 8.51458 28942 ft 532 kts 75°
2026-05-05 17:48 59.44971 8.65558 28777 ft 532 kts 75°
2026-05-05 17:48 59.45780 8.72650 28503 ft 532 kts 75°
2026-05-05 17:48 59.46582 8.79755 28219 ft 532 kts 75°
2026-05-05 17:48 59.47381 8.86855 27501 ft 531 kts 75°
2026-05-05 17:49 59.48175 8.93938 26581 ft 529 kts 75°
2026-05-05 17:49 59.48964 9.00990 25670 ft 527 kts 75°
2026-05-05 17:49 59.49748 9.08040 24730 ft 526 kts 75°
2026-05-05 17:49 59.50524 9.15080 23798 ft 526 kts 75°
2026-05-05 17:50 59.51295 9.22113 22769 ft 525 kts 75°
2026-05-05 17:50 59.52052 9.29092 21876 ft 518 kts 76°
2026-05-05 17:50 59.52797 9.36014 20960 ft 513 kts 76°
2026-05-05 17:50 59.53530 9.42861 20054 ft 508 kts 76°
2026-05-05 17:51 59.54257 9.49636 19235 ft 501 kts 76°
2026-05-05 17:51 59.54971 9.56294 18392 ft 492 kts 76°
2026-05-05 17:51 59.55655 9.62705 17318 ft 481 kts 76°
2026-05-05 17:51 59.56327 9.69046 16791 ft 466 kts 76°
2026-05-05 17:52 59.56983 9.75260 16054 ft 458 kts 76°
2026-05-05 17:52 59.57623 9.81362 15342 ft 451 kts 76°
2026-05-05 17:52 59.58249 9.87369 14779 ft 442 kts 76°
2026-05-05 17:52 59.58849 9.93177 14643 ft 423 kts 76°
2026-05-05 17:53 59.59424 9.98750 14514 ft 405 kts 76°
2026-05-05 17:53 59.59971 10.04072 14390 ft 387 kts 76°
2026-05-05 17:53 59.60495 10.09194 14263 ft 372 kts 76°
2026-05-05 17:53 59.60998 10.14106 14136 ft 358 kts 75°
2026-05-05 17:54 59.61746 10.18671 14013 ft 341 kts 61°
2026-05-05 17:54 59.62925 10.22599 13841 ft 326 kts 48°
2026-05-05 17:54 59.64449 10.25822 13496 ft 317 kts 35°
2026-05-05 17:54 59.66118 10.28636 13197 ft 314 kts 38°
2026-05-05 17:55 59.67685 10.31618 12918 ft 311 kts 40°
2026-05-05 17:55 59.69171 10.34630 12650 ft 309 kts 42°
2026-05-05 17:55 59.70653 10.37695 12378 ft 307 kts 42°
2026-05-05 17:55 59.72129 10.40746 12108 ft 305 kts 42°
2026-05-05 17:56 59.73601 10.43770 11831 ft 304 kts 42°
2026-05-05 17:56 59.75070 10.46762 11558 ft 302 kts 42°
2026-05-05 17:56 59.76535 10.49729 11303 ft 300 kts 43°
2026-05-05 17:56 59.77998 10.52689 10815 ft 302 kts 43°
2026-05-05 17:57 59.78976 10.54668 10595 ft 301 kts 43°
2026-05-05 17:57 59.80425 10.57608 10215 ft 295 kts 43°
2026-05-05 17:57 59.81857 10.60519 9514 ft 294 kts 43°
2026-05-05 17:57 59.83274 10.63407 8830 ft 291 kts 43°
2026-05-05 17:58 59.84680 10.66275 8222 ft 287 kts 43°
2026-05-05 17:58 59.86063 10.69095 7656 ft 282 kts 43°
2026-05-05 17:58 59.87853 10.72754 6970 ft 278 kts 43°
2026-05-05 17:58 59.88775 10.74634 6601 ft 283 kts 43°
2026-05-05 17:59 59.90017 10.77168 6327 ft 281 kts 43°
2026-05-05 17:59 59.91363 10.79923 5780 ft 277 kts 43°
2026-05-05 17:59 59.92702 10.82664 5172 ft 274 kts 43°
2026-05-05 17:59 59.93987 10.85308 4989 ft 255 kts 43°
2026-05-05 18:00 59.95193 10.87799 4883 ft 245 kts 43°
2026-05-05 18:00 59.96351 10.90193 4778 ft 234 kts 43°
2026-05-05 18:00 59.97457 10.92476 4682 ft 223 kts 43°
2026-05-05 18:00 59.98512 10.94654 4582 ft 215 kts 43°
2026-05-05 18:01 59.99650 10.96419 4497 ft 200 kts 22°
2026-05-05 18:01 60.00925 10.97324 4354 ft 193 kts 12°
2026-05-05 18:01 60.02196 10.98042 4124 ft 192 kts 12°
2026-05-05 18:01 60.03478 10.98770 3864 ft 191 kts 12°
2026-05-05 18:02 60.04750 10.99494 3607 ft 189 kts 12°
2026-05-05 18:02 60.06005 11.00211 3384 ft 185 kts 12°
2026-05-05 18:02 60.07230 11.00912 3094 ft 179 kts 12°
2026-05-05 18:02 60.08383 11.01574 2870 ft 162 kts 11°
2026-05-05 18:03 60.09403 11.02160 2645 ft 145 kts 11°
2026-05-05 18:03 60.10341 11.02695 2433 ft 137 kts 10°
2026-05-05 18:03 60.11254 11.03217 2248 ft 135 kts 10°
2026-05-05 18:03 60.12156 11.03733 2054 ft 134 kts 10°
2026-05-05 18:04 60.13053 11.04248 1873 ft 134 kts 10°
2026-05-05 18:04 60.13949 11.04764 1693 ft 134 kts 11°
2026-05-05 18:04 60.14847 11.05277 1476 ft 135 kts 11°
2026-05-05 18:04 60.15753 11.05802 1281 ft 136 kts 11°
2026-05-05 18:05 60.16669 11.06329 1098 ft 138 kts 12°
2026-05-05 18:05 60.17588 11.06855 909 ft 137 kts 13°
2026-05-05 18:05 60.18503 11.07380 727 ft 136 kts 13°
2026-05-05 18:05 60.19379 11.07874 671 ft 117 kts 15°
2026-05-05 18:06 60.19998 11.08235 673 ft 68 kts 15°
2026-05-05 18:06 60.20218 11.08365 676 ft 28 kts 16°
2026-05-05 18:06 60.20268 11.08491 677 ft 9 kts 106°
2026-05-05 18:06 60.20246 11.08634 677 ft 10 kts 107°
2026-05-05 18:07 60.20243 11.08652 677 ft 1 kts 107°
2026-05-05 18:07 60.20239 11.08681 675 ft 4 kts 106°
2026-05-05 18:07 60.20229 11.08752 677 ft 7 kts 105°
2026-05-05 18:07 60.20215 11.08858 678 ft 9 kts 105°
2026-05-05 18:08 60.20200 11.08958 680 ft 7 kts 109°
2026-05-05 18:08 60.20183 11.09055 679 ft 9 kts 108°
2026-05-05 18:08 60.20161 11.09194 681 ft 12 kts 106°
2026-05-05 18:08 60.20138 11.09369 679 ft 14 kts 105°
2026-05-05 18:09 60.20110 11.09576 681 ft 16 kts 105°
2026-05-05 18:09 60.20087 11.09734 683 ft 9 kts 108°
2026-05-05 18:09 60.20033 11.09803 683 ft 11 kts 185°
2026-05-05 18:09 60.19946 11.09752 682 ft 13 kts 195°
2026-05-05 18:10 60.19845 11.09696 682 ft 16 kts 196°
2026-05-05 18:10 60.19754 11.09643 681 ft 15 kts 196°
2026-05-05 18:10 60.19684 11.09605 681 ft 7 kts 189°
2026-05-05 18:10 60.19650 11.09629 682 ft 6 kts 133°
2026-05-05 18:11 60.19623 11.09694 681 ft 7 kts 156°
2026-05-05 18:11 60.19567 11.09675 682 ft 8 kts 197°
2026-05-05 18:11 60.19531 11.09653 681 ft 2 kts 196°